TimeEST,TemperatureF,Dew PointF,Humidity,Sea Level PressureIn,VisibilityMPH,Wind Direction,Wind SpeedMPH,Gust SpeedMPH,PrecipitationIn,Events,Conditions,WindDirDegrees,DateUTC
12:15 AM,60.6,60.6,100,29.59,10.0,WNW,8.1,-,N/A,,Scattered Clouds,290,2013-02-27 05:15:00
12:35 AM,60.8,58.6,93,29.60,10.0,WNW,8.1,-,N/A,,Clear,290,2013-02-27 05:35:00
12:55 AM,59.9,57.7,93,29.61,10.0,WNW,10.4,-,N/A,,Clear,290,2013-02-27 05:55:00
1:15 AM,59.0,56.3,91,29.61,10.0,WNW,8.1,-,N/A,,Clear,290,2013-02-27 06:15:00
1:35 AM,57.6,55.4,92,29.61,10.0,West,3.5,-,N/A,,Clear,280,2013-02-27 06:35:00
1:55 AM,56.8,55.6,96,29.61,10.0,West,4.6,-,N/A,,Clear,280,2013-02-27 06:55:00
2:15 AM,55.4,55.2,99,29.61,10.0,Calm,Calm,-,N/A,,Clear,0,2013-02-27 07:15:00
2:35 AM,54.1,54.1,100,29.61,10.0,WSW,4.6,-,N/A,,Clear,250,2013-02-27 07:35:00
3:15 AM,53.6,51.8,94,29.60,10.0,WSW,4.6,-,N/A,,Clear,250,2013-02-27 08:15:00
3:55 AM,53.1,48.9,86,29.60,10.0,SW,5.8,-,N/A,,Clear,230,2013-02-27 08:55:00
4:15 AM,52.3,48.6,87,29.61,10.0,WSW,4.6,-,N/A,,Clear,240,2013-02-27 09:15:00
4:35 AM,52.3,48.7,88,29.62,10.0,SW,6.9,-,N/A,,Clear,230,2013-02-27 09:35:00
4:55 AM,52.7,49.5,89,29.63,10.0,WSW,6.9,-,N/A,,Clear,240,2013-02-27 09:55:00
5:15 AM,52.2,48.7,88,29.63,10.0,WSW,8.1,-,N/A,,Clear,240,2013-02-27 10:15:00
5:35 AM,52.0,47.7,85,29.63,10.0,WSW,9.2,-,N/A,,Clear,240,2013-02-27 10:35:00
5:55 AM,51.3,46.6,84,29.63,10.0,SW,9.2,-,N/A,,Clear,230,2013-02-27 10:55:00
6:15 AM,50.0,46.2,87,29.63,10.0,SSW,6.9,-,N/A,,Clear,210,2013-02-27 11:15:00
6:35 AM,49.5,46.4,89,29.63,10.0,SSW,8.1,-,N/A,,Clear,210,2013-02-27 11:35:00
6:55 AM,50.7,46.0,84,29.64,10.0,WSW,15.0,18.4,N/A,,Clear,240,2013-02-27 11:55:00
7:15 AM,50.2,43.0,76,29.67,10.0,West,17.3,25.3,N/A,,Clear,270,2013-02-27 12:15:00
7:35 AM,49.6,43.2,78,29.69,10.0,West,10.4,23.0,N/A,,Scattered Clouds,270,2013-02-27 12:35:00
7:55 AM,48.7,42.6,79,29.71,10.0,West,18.4,25.3,N/A,,Overcast,260,2013-02-27 12:55:00
8:35 AM,48.4,42.8,81,29.72,10.0,West,11.5,17.3,N/A,,Overcast,270,2013-02-27 13:35:00
8:55 AM,48.6,42.8,80,29.72,10.0,West,11.5,-,N/A,,Overcast,270,2013-02-27 13:55:00
9:15 AM,49.1,43.2,80,29.73,10.0,West,10.4,16.1,N/A,,Overcast,270,2013-02-27 14:15:00
9:35 AM,49.8,43.5,79,29.74,10.0,West,11.5,17.3,N/A,,Overcast,270,2013-02-27 14:35:00
10:15 AM,51.3,43.3,74,29.75,10.0,West,12.7,-,N/A,,Mostly Cloudy,260,2013-02-27 15:15:00
10:35 AM,52.9,43.9,71,29.75,10.0,West,9.2,16.1,N/A,,Scattered Clouds,270,2013-02-27 15:35:00
10:55 AM,53.4,43.5,69,29.75,10.0,West,10.4,17.3,N/A,,Scattered Clouds,270,2013-02-27 15:55:00
11:15 AM,54.5,43.3,66,29.75,10.0,West,11.5,-,N/A,,Scattered Clouds,260,2013-02-27 16:15:00
11:35 AM,55.0,42.6,63,29.75,10.0,West,10.4,-,N/A,,Clear,270,2013-02-27 16:35:00
11:55 AM,55.8,42.4,61,29.75,10.0,West,9.2,-,N/A,,Clear,260,2013-02-27 16:55:00
12:15 PM,56.5,42.8,60,29.74,10.0,West,9.2,-,N/A,,Clear,270,2013-02-27 17:15:00
12:35 PM,57.4,42.3,57,29.74,10.0,West,10.4,-,N/A,,Clear,260,2013-02-27 17:35:00
12:55 PM,58.3,41.7,54,29.73,10.0,West,10.4,16.1,N/A,,Clear,280,2013-02-27 17:55:00
1:15 PM,58.3,41.2,53,29.72,10.0,West,8.1,-,N/A,,Clear,280,2013-02-27 18:15:00
1:55 PM,59.0,39.7,49,29.71,10.0,West,9.2,-,N/A,,Clear,260,2013-02-27 18:55:00
2:15 PM,59.7,40.6,49,29.71,10.0,WSW,9.2,-,N/A,,Clear,250,2013-02-27 19:15:00
2:35 PM,59.2,41.7,52,29.71,10.0,WSW,9.2,-,N/A,,Clear,240,2013-02-27 19:35:00
2:55 PM,59.4,42.3,53,29.72,10.0,SW,11.5,-,N/A,,Clear,230,2013-02-27 19:55:00
3:15 PM,59.4,42.1,53,29.71,10.0,WSW,9.2,-,N/A,,Clear,250,2013-02-27 20:15:00
3:35 PM,59.7,41.7,51,29.71,10.0,WSW,9.2,-,N/A,,Clear,240,2013-02-27 20:35:00
3:55 PM,58.1,41.5,54,29.71,10.0,SW,8.1,-,N/A,,Clear,230,2013-02-27 20:55:00
4:15 PM,57.7,41.5,55,29.72,10.0,WSW,8.1,-,N/A,,Clear,240,2013-02-27 21:15:00
4:35 PM,58.1,41.7,54,29.71,10.0,WSW,9.2,-,N/A,,Clear,250,2013-02-27 21:35:00
4:55 PM,57.4,41.7,56,29.72,10.0,WSW,6.9,-,N/A,,Clear,240,2013-02-27 21:55:00
5:15 PM,57.2,42.1,57,29.72,10.0,SW,8.1,-,N/A,,Clear,230,2013-02-27 22:15:00
5:35 PM,55.6,42.3,61,29.72,10.0,SW,9.2,-,N/A,,Clear,230,2013-02-27 22:35:00
5:55 PM,55.8,41.9,60,29.73,10.0,WSW,9.2,-,N/A,,Clear,240,2013-02-27 22:55:00
6:15 PM,55.4,41.9,60,29.73,10.0,WSW,6.9,-,N/A,,Clear,240,2013-02-27 23:15:00
6:35 PM,54.5,41.9,62,29.74,10.0,WSW,5.8,-,N/A,,Clear,240,2013-02-27 23:35:00
6:55 PM,54.0,41.9,64,29.74,10.0,WSW,4.6,-,N/A,,Clear,240,2013-02-27 23:55:00
7:15 PM,51.8,42.1,69,29.74,10.0,SW,4.6,-,N/A,,Clear,220,2013-02-28 00:15:00
7:35 PM,52.2,42.6,70,29.74,10.0,SW,3.5,-,N/A,,Clear,220,2013-02-28 00:35:00
7:55 PM,50.9,42.1,72,29.74,10.0,SW,5.8,-,N/A,,Clear,220,2013-02-28 00:55:00
8:15 PM,51.3,42.1,71,29.74,10.0,SW,5.8,-,N/A,,Clear,220,2013-02-28 01:15:00
8:35 PM,51.1,42.1,71,29.73,10.0,WSW,5.8,-,N/A,,Clear,240,2013-02-28 01:35:00
9:15 PM,49.6,41.7,74,29.73,10.0,SW,4.6,-,N/A,,Clear,230,2013-02-28 02:15:00
9:35 PM,49.1,41.7,76,29.73,10.0,SW,5.8,-,N/A,,Clear,230,2013-02-28 02:35:00
9:55 PM,49.1,42.1,77,29.73,10.0,SW,3.5,-,N/A,,Clear,230,2013-02-28 02:55:00
10:15 PM,48.4,41.5,77,29.73,10.0,SSW,6.9,-,N/A,,Clear,210,2013-02-28 03:15:00
10:35 PM,46.6,41.9,84,29.73,10.0,SSW,5.8,-,N/A,,Clear,200,2013-02-28 03:35:00
10:55 PM,45.7,41.9,87,29.72,10.0,SSW,6.9,-,N/A,,Clear,210,2013-02-28 03:55:00
11:15 PM,45.5,42.1,88,29.72,10.0,SSW,6.9,-,N/A,,Clear,210,2013-02-28 04:15:00
11:35 PM,45.7,43.0,90,29.72,10.0,SW,5.8,-,N/A,,Clear,220,2013-02-28 04:35:00
11:55 PM,46.0,42.8,88,29.71,10.0,SW,4.6,-,N/A,,Clear,220,2013-02-28 04:55:00